Iridium Next SV172
operational LEOCIRCULARPOLAR
Über Iridium Next SV172
Group: 3 satellites
Beschreibung wird geladen...
Live-Position
3D-Globus wird geladen...
Nächste Überflüge
Höhenverlauf
Altitude vs Time
uPlot chart will show altitude changes over time
Zweizeiliger Elementsatz
1 43927U 19002F 25351.29382415 .00000246 00000-0 80933-4 0 9996
2 43927 86.3966 69.6135 0001955 94.5212 265.6207 14.34215061362891
Epoch: 17. Dez. 2025 •
Age: 11 hours
Aktueller Status
Höhe 789.6 km
Geschwindigkeit 7.47 km/s
Subsatellitenpunkt 78.29°N,
118.29°W
Startdatum 11. Jan. 2019
Alter 6.9 years
Typ communications
Technische Details
Klassifizierung Payload
Masse 860.00 kg
Trockenmasse 700.00 kg
Gesamtmasse 860.00 kg
Länge 3.10 m
Durchmesser 1.50 m
Spannweite 9.40 m
Form Half Hex Prism+2 pan
Hersteller NGISGA
Bus-Typ EliteBus
Phasenstatus In Orbit
Besitzer/Staat IRIDS/US
Große Konstellationen
Loading constellations...